[[{"header":{"parameterUnit":"m.s-1","parameterCategory":1,"la1":30.2991,"la2":30.254,"lo1":-89.0895,"lo2":-89.0444,"dy":0.0017,"dx":0.0017,"nx":28,"ny":28,"refTime":"2024-08-13T09:00:00:Z","depth":0,"parameterNumber":2,"parameterNumberName":"U-component_of_WINDS"},"data":[0,0,0,0,0,0,0,0,0,0,0,0,0,0,0,0,0,0,0,0,0,0,0,0,0,0,0,0,0,0,0,0,0,0,0,0,0,0,0,0,0,0,0,0,0,0,0,0,0,0,0,0,0,0,0,0,0,0,2.1343,2.1345,0,2.1492,2.1493,2.1495,2.1518,2.1517,2.1516,2.1514,2.1668,2.1673,2.1678,0,0,0,0,0,0,0,0,0,0,0,0,0,2.1079,2.1084,2.1343,2.1345,2.1347,2.1491,2.1493,2.1495,2.1519,2.1517,2.1515,2.1514,2.1666,2.1672,2.1679,0,0,0,0,0,0,0,0,0,0,0,0,0,2.1207,2.1085,2.1342,2.1376,2.138,2.1491,2.1493,2.1496,2.1519,2.1517,2.1515,2.1513,2.1664,2.1672,2.168,2.1768,0,0,2.1704,2.1707,0,0,0,0,0,0,0,0,2.12,2.1217,2.1369,2.1373,2.1379,2.1484,2.1457,2.1587,2.1519,2.1466,2.1514,2.1512,2.1608,2.1621,2.1653,2.1775,2.1782,2.1705,2.1709,2.1713,2.1715,0,0,0,0,0,0,0,2.1191,2.1211,2.1402,2.1371,2.1377,2.1383,2.1399,2.1481,2.1547,2.1471,2.1473,2.149,2.1611,2.1645,2.1657,2.1784,2.1704,2.1711,2.1716,2.1719,2.1985,2.1988,0,0,0,0,0,0,2.1176,2.1203,2.1397,2.1406,2.1283,2.1389,2.1407,2.1452,2.1546,2.1558,2.1491,2.149,2.1633,2.1648,2.1662,2.1771,2.1713,2.172,2.1725,2.1983,2.1986,2.1988,0,0,0,0,0,0,2.117,2.1193,2.1391,2.1305,2.1331,2.1396,2.1447,2.1456,2.1491,2.1561,2.1573,2.1515,2.1632,2.1651,2.1741,2.1777,2.1724,2.1731,2.198,2.1984,2.1987,2.1989,0,0,0,0,0,0,2.1163,2.1191,2.1225,2.1306,2.1335,2.1467,2.1449,2.1461,2.1505,2.1505,2.1586,2.1598,2.1632,2.1729,2.1749,2.1787,2.1737,2.1978,2.1982,2.1986,2.1986,2.1992,2.1998,0,0,0,0,0,2.1153,2.122,2.1227,2.125,2.138,2.1469,2.1486,2.1523,2.1507,2.1542,2.1587,2.1596,2.177,2.1738,2.1761,2.1801,2.1975,2.1981,2.1986,2.1984,2.1991,2.1998,0,0,0,0,0,0,2.1143,2.1232,2.124,2.1335,2.1394,2.1473,2.1518,2.153,2.1595,2.1592,2.1636,2.1654,2.1742,2.1781,2.1744,2.1891,2.1871,2.1881,2.1862,2.187,2.1875,2.1863,2.1744,0,0,0,0,0,2.1151,2.1217,2.1291,2.1368,2.1397,2.1452,2.1493,2.1516,2.158,2.1605,2.1657,2.1718,2.1786,2.1831,2.1898,2.1993,2.201,2.2032,2.2037,2.2042,2.2049,2.2101,2.2111,2.2005,2.2005,2.2005,0,0,2.117,2.1227,2.1265,2.1367,2.1416,2.1482,2.1473,2.1544,2.1594,2.1616,2.1703,2.1744,2.1815,2.1907,2.1951,2.1943,2.2082,2.2048,2.2051,2.2056,2.2107,2.2117,2.2126,2.2009,2.2008,2.2008,0,0,2.1237,2.1288,2.1356,2.1405,2.1479,2.1515,2.1532,2.1609,2.1636,2.1725,2.1742,2.1802,2.192,2.1969,2.201,2.2096,2.2105,2.2117,2.2145,2.2195,2.2204,2.2211,2.224,2.2251,2.2124,2.2124,2.2124,0,2.1251,2.1352,2.139,2.146,2.1504,2.1527,2.1596,2.1642,2.1734,2.1764,2.1754,2.19,2.195,2.2054,2.2075,2.2108,2.2127,2.2107,2.2199,2.2207,2.2215,2.2243,2.2254,2.2125,2.2125,2.2125,2.2125,0,2.1364,2.1434,2.1481,2.1568,2.1617,2.1687,2.1736,2.1781,2.18,2.1838,2.1927,2.1988,2.2067,2.2094,2.2114,2.22,2.2193,2.2191,2.2171,2.2225,2.2252,2.2264,2.2126,2.2126,2.2126,2.2126,0,0,2.1428,2.1536,2.1552,2.1591,2.1674,2.1729,2.18,2.1876,2.1914,2.1977,2.2036,2.2135,2.2133,2.2179,2.2205,2.2249,2.2311,2.2242,2.2244,2.2251,2.2409,2.2409,2.2421,2.2319,2.2321,2.2323,2.2403,0,2.1503,2.1629,2.1666,2.1772,2.1836,2.1858,2.192,2.1977,2.2014,2.2074,2.2115,2.2183,2.2177,2.2204,2.2249,2.2294,2.2343,2.2289,2.2374,2.2376,2.2353,2.2435,2.2436,2.2508,2.2414,2.2416,2.2417,0,2.1608,2.1672,2.1784,2.1858,2.1886,2.1941,2.2014,2.2071,2.2136,2.216,2.2211,2.2233,2.2307,2.2285,2.2387,2.2349,2.2387,2.2414,2.2418,2.2425,2.2399,2.2444,2.2532,2.2542,2.2434,2.2433,2.2432,0,2.1641,2.1755,2.1837,2.187,2.1959,2.1997,2.2035,2.2099,2.2143,2.2207,2.2236,2.2308,2.2347,2.2402,2.2443,2.2423,2.2541,2.2522,2.2562,2.2561,2.2585,2.2582,2.2678,2.2612,2.2611,2.2611,2.2611,0,2.172,2.1787,2.1852,2.1902,2.1978,2.202,2.2094,2.2134,2.219,2.2248,2.2273,2.2327,2.2378,2.2439,2.2471,2.255,2.2568,2.2589,2.2596,2.2586,2.2583,2.2609,2.2605,2.2614,2.2613,2.2613,2.2612,0,2.1769,2.1815,2.1905,2.1982,2.2003,2.2055,2.2121,2.217,2.2208,2.2281,2.2301,2.236,2.2433,2.2479,2.2572,2.2594,2.268,2.2687,2.2657,2.266,2.2697,2.2692,2.2811,2.2829,2.2752,2.2753,2.2753,0,2.1815,2.1867,2.195,2.199,2.2029,2.2094,2.2139,2.2182,2.2228,2.2306,2.2346,2.242,2.2481,2.2596,2.2648,2.2719,2.2726,2.2764,2.2737,2.2724,2.2725,2.2721,2.2725,2.2767,2.2768,2.2768,2.2769,0,2.1892,2.1913,2.1976,2.2047,2.2099,2.2158,2.2216,2.2248,2.2301,2.2351,2.2425,2.2473,2.2567,2.264,2.2716,2.2756,2.2771,2.2777,2.2789,2.2778,2.2758,2.2767,2.2667,2.2773,2.2773,2.2772,2.2772,2.2772,2.194,2.1987,2.2052,2.2121,2.217,2.2224,2.2273,2.2317,2.238,2.246,2.2482,2.2559,2.2624,2.2727,2.2768,2.2829,2.2824,2.2843,2.2848,2.2851,2.2851,2.275,2.2843,2.2843,2.2843,2.2843,2.2843,0,2.2017,2.206,2.2123,2.2204,2.2258,2.2268,2.2333,2.2378,2.2445,2.2504,2.2564,2.2649,2.272,2.2777,2.285,2.2888,2.2897,2.2906,2.2902,2.2911,2.2852,2.2832,2.2897,2.2897,2.2897,2.2897,2.2897,2.2897,2.2063,2.2142,2.217,2.2274,2.2317,2.2392,2.2428,2.2478,2.2525,2.2618,2.2677,2.2714,2.2773,2.285,2.2915,2.2931,2.2955,2.2963,2.2979,2.2922,2.2916,2.291,2.2892,2.2968,2.2968,2.3033,2.3034,2.3034]},{"header":{"parameterUnit":"m.s-1","parameterCategory":1,"la1":30.2991,"la2":30.254,"lo1":-89.0895,"lo2":-89.0444,"dy":0.0017,"dx":0.0017,"nx":28,"ny":28,"refTime":"2024-08-13T09:00:00:Z","depth":0,"parameterNumber":3,"parameterNumberName":"V-component_of_WINDS"},"data":[0,0,0,0,0,0,0,0,0,0,0,0,0,0,0,0,0,0,0,0,0,0,0,0,0,0,0,0,0,0,0,0,0,0,0,0,0,0,0,0,0,0,0,0,0,0,0,0,0,0,0,0,0,0,0,0,0,0,4.4355,4.4355,0,4.4303,4.4303,4.4302,4.4212,4.421,4.4208,4.4207,4.4154,4.4154,4.4155,0,0,0,0,0,0,0,0,0,0,0,0,0,4.4379,4.4379,4.4355,4.4355,4.4354,4.4303,4.4303,4.4302,4.4212,4.421,4.4208,4.4206,4.4154,4.4154,4.4155,0,0,0,0,0,0,0,0,0,0,0,0,0,4.4352,4.4379,4.4356,4.4303,4.4298,4.4304,4.4303,4.4302,4.4212,4.421,4.4207,4.4205,4.4154,4.4154,4.4155,4.4208,0,0,4.4156,4.4156,0,0,0,0,0,0,0,0,4.4354,4.4351,4.4311,4.4307,4.4301,4.4261,4.4292,4.427,4.4213,4.4245,4.4206,4.4204,4.4192,4.4189,4.4185,4.4205,4.4203,4.4156,4.4156,4.4156,4.4156,0,0,0,0,0,0,0,4.4356,4.4353,4.4335,4.4311,4.4305,4.4283,4.4276,4.4287,4.4233,4.4242,4.4235,4.423,4.4189,4.4185,4.4183,4.4202,4.4156,4.4156,4.4156,4.4156,4.4264,4.4267,0,0,0,0,0,0,4.4365,4.4355,4.4336,4.4333,4.4322,4.4284,4.4277,4.4277,4.4233,4.4224,4.4232,4.4226,4.4186,4.4183,4.4181,4.424,4.4156,4.4156,4.4156,4.4261,4.4265,4.4268,0,0,0,0,0,0,4.4366,4.4364,4.4339,4.4342,4.4337,4.4287,4.4287,4.4277,4.4273,4.4226,4.4216,4.4238,4.4183,4.418,4.4202,4.4237,4.4156,4.4157,4.4258,4.4262,4.4266,4.4359,0,0,0,0,0,0,4.4367,4.4365,4.4384,4.4344,4.4338,4.436,4.4289,4.4278,4.4274,4.4265,4.4229,4.422,4.4181,4.4202,4.4202,4.4236,4.4157,4.4255,4.426,4.4265,4.4352,4.4365,4.4376,0,0,0,0,0,4.4368,4.4412,4.4386,4.4384,4.436,4.4362,4.4359,4.4312,4.4277,4.4296,4.4266,4.4221,4.4233,4.4205,4.4204,4.4238,4.4252,4.4259,4.4265,4.4347,4.4363,4.4376,0,0,0,0,0,0,4.4458,4.4406,4.4376,4.4408,4.439,4.4347,4.4369,4.4331,4.4323,4.4315,4.4259,4.4252,4.428,4.4262,4.4231,4.4288,4.4236,4.4242,4.4299,4.4313,4.4325,4.4329,4.4157,0,0,0,0,0,4.4482,4.4487,4.4442,4.4475,4.4467,4.442,4.4419,4.4385,4.4365,4.4357,4.4328,4.4311,4.431,4.4311,4.4308,4.435,4.4341,4.4373,4.4385,4.4396,4.4401,4.4422,4.4436,4.4288,4.4287,4.4287,0,0,4.4531,4.4503,4.451,4.4492,4.4474,4.4482,4.4414,4.4425,4.443,4.4358,4.4376,4.4356,4.4332,4.4364,4.4376,4.4349,4.4441,4.4403,4.4412,4.4412,4.443,4.4444,4.4457,4.4292,4.4291,4.429,0,0,4.4623,4.4603,4.4628,4.4612,4.4586,4.4554,4.4561,4.4524,4.4507,4.4524,4.4471,4.4477,4.4477,4.4463,4.4456,4.4545,4.4504,4.4546,4.4609,4.463,4.4642,4.4652,4.4683,4.4695,4.4552,4.4552,4.4552,0,4.4687,4.4695,4.4646,4.4659,4.4653,4.459,4.4615,4.4602,4.4577,4.4575,4.4545,4.4545,4.4525,4.4552,4.4574,4.4571,4.4576,4.4549,4.4644,4.4653,4.4662,4.4691,4.4704,4.4557,4.4557,4.4556,4.4556,0,4.4775,4.4782,4.4805,4.4782,4.4779,4.4799,4.4753,4.4756,4.4724,4.4696,4.4715,4.4689,4.468,4.4684,4.4652,4.4708,4.4692,4.4654,4.46,4.4682,4.4709,4.472,4.4565,4.4563,4.4561,4.456,0,0,4.492,4.487,4.488,4.4869,4.4837,4.4841,4.4859,4.485,4.4854,4.484,4.4853,4.4856,4.4821,4.4813,4.4779,4.4798,4.487,4.4758,4.4756,4.4779,4.493,4.4958,4.4971,4.4844,4.4846,4.4847,4.4932,0,4.5004,4.503,4.4987,4.5023,4.5029,4.497,4.4986,4.4969,4.4944,4.4946,4.4919,4.4921,4.4875,4.487,4.4886,4.4858,4.49,4.4852,4.4855,4.4856,4.4862,4.4985,4.5014,4.5095,4.4942,4.4943,4.4945,0,4.5105,4.5096,4.5133,4.5099,4.51,4.5115,4.5103,4.5106,4.5086,4.5067,4.5059,4.5019,4.5035,4.4985,4.5006,4.4974,4.4974,4.4961,4.4963,4.496,4.4904,4.4985,4.512,4.5132,4.4961,4.4959,4.4958,0,4.5206,4.5203,4.5225,4.5217,4.5179,4.5191,4.5176,4.5153,4.515,4.5141,4.5139,4.5133,4.5129,4.5125,4.5085,4.5052,4.5111,4.5057,4.5095,4.5097,4.5109,4.5108,4.5244,4.5111,4.5111,4.5111,4.5111,0,4.5304,4.5329,4.527,4.5283,4.5309,4.5261,4.5289,4.5268,4.5248,4.5257,4.5206,4.5216,4.5163,4.5167,4.5136,4.5159,4.5158,4.5143,4.5134,4.5146,4.5148,4.5144,4.5137,4.5114,4.5113,4.5113,4.5112,0,4.542,4.5382,4.5401,4.5364,4.5355,4.5377,4.5345,4.5356,4.5329,4.5341,4.5341,4.5299,4.5301,4.5261,4.5256,4.5235,4.5271,4.5253,4.5278,4.5272,4.5312,4.5308,4.5448,4.5464,4.5323,4.5324,4.5325,0,4.5484,4.5501,4.5467,4.5469,4.5456,4.546,4.5458,4.5412,4.5411,4.5391,4.5405,4.5403,4.5399,4.5406,4.5375,4.5371,4.5352,4.5401,4.535,4.5363,4.5351,4.535,4.5352,4.5411,4.5413,4.5414,4.5416,0,4.5601,4.5582,4.558,4.5572,4.5571,4.5563,4.5551,4.5556,4.5506,4.5509,4.5511,4.5508,4.5503,4.5502,4.5492,4.5477,4.5439,4.5432,4.5441,4.5453,4.5466,4.5459,4.5306,4.5429,4.5427,4.5426,4.5426,4.5425,4.5692,4.5705,4.5683,4.5683,4.567,4.5661,4.567,4.5645,4.5645,4.5637,4.561,4.5617,4.5598,4.5581,4.557,4.5575,4.555,4.5563,4.5566,4.5569,4.5576,4.5467,4.5573,4.5573,4.5572,4.5572,4.5572,0,4.5806,4.5789,4.579,4.5776,4.5777,4.5741,4.5727,4.573,4.5736,4.5721,4.5719,4.5722,4.5721,4.5691,4.5687,4.5697,4.568,4.5698,4.5696,4.5693,4.5599,4.5591,4.5712,4.5712,4.5712,4.5712,4.5712,4.5712,4.5865,4.5886,4.5864,4.5878,4.5861,4.5867,4.5862,4.5854,4.5842,4.5848,4.5847,4.5828,4.5807,4.5801,4.58,4.5791,4.5792,4.5816,4.5801,4.5713,4.57,4.5686,4.5679,4.5817,4.5817,4.5895,4.5895,4.5896]}]]